RH
58 57 56 55 54 53 51 50 50 49 48 48 47 47 46 45 44 43 43 41 39 38 36 35 33 32 30 29 28 27 26 25 24 23 22 21 20 20 19 18 18 18 18 18 17 17 17 17 17 16 17 17 17 17 17 17 16 17 16 16 16 16 15 15 15 14 14 14 13 13 13 13 13 12 12 11 11 10 9 9 8 8 8 7 7 6
56 55 54 53 52 51 50 49 49 48 48 47 46 45 43 42 40 38 37 35 33 32 30 29 27 26 25 24 23 22 22 21 20 19 18 18 18 18 18 17 18 18 18 19 19 20 21 22 22 22 23 22 23 22 22 22 21 21 20 19 18 17 16 15 14 14 13 12 12 11 10 10 10 9 9 8 8 7 7 6 6 5 5 4 5 4
54 53 53 51 50 50 49 48 47 45 44 42 41 39 37 35 33 33 31 28 27 26 25 24 23 22 21 20 20 19 19 19 18 18 18 18 18 18 19 19 20 21 22 24 25 26 26 27 27 26 25 24 23 21 20 19 18 17 15 14 13 11 11 10 9 9 8 8 7 7 6 6 6 5 5 5 5 4 4 4 4 4 3 3 3 3
53 52 51 50 48 47 45 43 41 39 37 35 33 32 30 28 27 27 26 25 24 22 23 23 22 21 19 18 18 18 18 19 20 20 21 22 24 25 25 25 26 26 26 25 24 23 22 21 19 18 16 15 14 13 12 11 10 9 8 8 7 7 6 6 6 5 5 5 4 4 4 4 4 3 3 3 3 3 3 3 3 3 3 3 3 3
51 49 47 45 43 41 39 37 35 33 30 29 28 26 26 25 24 23 23 23 22 21 21 22 25 29 26 22 22 23 25 27 28 28 28 28 28 26 24 23 21 19 17 16 14 13 12 11 10 10 9 9 8 8 7 7 7 7 6 6 6 6 6 5 5 5 5 4 4 4 4 4 4 4 4 4 4 4 4 4 4 3 3 3 3 3
44 42 40 38 36 34 32 30 29 28 27 26 26 25 24 23 23 22 22 24 27 29 29 31 36 40 37 31 29 29 28 28 26 24 22 19 17 15 13 12 11 10 9 9 9 9 9 9 9 9 9 9 9 9 8 8 8 8 7 7 7 6 6 6 6 5 5 5 5 5 4 4 4 4 4 4 4 4 4 4 4 4 4 4 4 3
37 35 32 31 30 29 28 27 26 25 25 25 25 25 25 26 28 30 32 34 37 38 35 33 32 30 28 24 21 19 17 15 14 12 11 10 9 9 8 8 8 9 9 9 10 10 11 11 10 10 10 10 10 10 10 9 9 8 8 8 7 7 7 7 6 6 6 6 5 5 5 5 5 5 5 5 5 5 5 5 5 5 5 4 4 4
30 29 28 28 27 27 27 26 27 27 29 32 33 35 37 37 37 36 35 32 29 26 22 20 17 15 15 14 12 11 10 10 9 8 8 8 9 10 10 11 11 12 12 12 12 11 11 10 10 10 9 10 10 10 9 9 9 8 8 8 7 8 7 8 8 7 7 7 7 7 6 6 6 6 6 5 6 5 6 6 6 6 5 5 5 5
29 28 27 27 28 29 30 33 36 37 39 40 39 37 34 31 27 23 20 18 16 15 14 13 13 13 14 14 12 11 11 10 10 10 10 10 12 12 13 13 13 13 12 12 12 11 11 10 10 10 10 10 10 10 10 9 10 9 9 9 9 9 9 9 9 9 9 8 8 8 8 8 7 7 7 7 7 6 6 7 7 7 6 6 6 6
27 27 29 32 34 36 38 39 39 36 32 29 25 22 19 16 15 13 14 14 15 17 17 16 15 16 17 16 15 14 13 12 12 12 12 13 14 14 14 14 13 13 12 12 12 11 11 11 11 11 11 11 10 10 10 9 10 9 9 9 9 9 9 9 10 9 10 10 10 10 9 10 9 9 9 9 9 8 8 8 8 8 8 8 8 7
31 34 37 39 38 35 32 28 24 21 18 16 15 15 15 15 15 16 17 18 20 21 21 20 19 19 20 19 17 15 13 11 11 13 14 14 14 14 14 13 12 12 12 12 12 11 11 11 11 11 11 10 10 10 9 9 9 9 9 9 8 8 8 8 9 9 9 9 10 10 10 10 10 11 11 11 11 10 10 10 10 10 10 10 10 10
41 39 35 31 26 22 20 18 17 17 18 17 17 17 18 19 20 20 20 21 22 23 23 22 21 21 21 20 19 15 11 10 10 11 12 12 12 12 12 11 11 11 10 10 10 10 10 10 10 10 10 10 10 10 9 9 9 9 8 8 8 8 8 8 8 8 8 8 8 8 9 9 9 10 10 10 10 10 10 10 11 11 11 12 12 12
32 26 23 20 19 19 20 21 22 22 22 21 20 19 19 18 18 18 18 18 19 20 22 22 19 20 20 22 22 15 9 9 9 9 10 10 10 10 10 10 10 9 9 8 8 8 9 9 9 9 9 9 9 9 9 9 9 9 9 9 9 9 8 8 8 8 8 7 7 7 7 8 8 8 8 8 8 8 8 9 9 10 10 11 11 12
23 22 22 23 23 23 22 22 22 21 20 19 17 16 15 14 13 13 13 13 13 15 21 24 22 21 23 27 27 18 11 9 9 9 10 9 9 9 9 9 9 9 8 8 8 7 7 7 7 7 8 8 8 9 9 9 9 9 9 9 9 9 9 9 8 8 8 8 8 7 7 7 7 7 7 7 7 7 7 7 7 8 8 8 9 10
24 24 24 23 22 21 20 19 19 19 18 17 16 16 16 16 15 13 13 12 11 11 18 24 25 26 29 32 30 25 20 15 13 14 14 12 9 8 8 8 8 8 8 8 7 7 7 7 7 7 7 7 8 8 8 9 9 9 9 9 9 9 9 8 8 8 8 8 8 8 7 8 7 7 7 7 8 7 7 7 7 7 7 7 7 8
26 25 23 22 21 21 22 23 24 26 25 24 23 23 23 23 21 20 19 18 15 14 17 22 24 27 32 33 30 31 29 24 21 21 20 18 14 12 10 9 9 8 8 8 8 8 7 7 7 7 7 7 7 8 9 9 9 9 9 9 9 9 9 8 7 7 7 7 7 7 7 7 7 7 7 7 8 8 9 9 9 8 7 7 7 6
30 32 31 31 31 31 32 33 33 32 30 29 28 27 26 26 24 23 22 21 18 17 18 20 20 22 27 27 27 30 32 30 29 26 24 24 21 18 15 13 11 10 9 9 8 8 8 8 8 8 8 9 9 9 9 10 10 10 10 10 10 10 10 9 8 7 7 7 7 7 7 7 7 7 7 7 8 9 9 9 9 8 7 7 6 6
37 40 40 39 38 37 36 35 33 32 30 29 27 26 25 24 22 21 20 19 18 17 17 17 17 18 19 19 19 22 25 27 28 26 24 24 21 19 17 15 14 12 11 10 9 9 9 9 9 10 10 10 10 10 9 9 10 10 10 10 10 11 10 10 9 9 8 7 6 6 6 6 6 6 6 7 8 9 9 9 8 7 7 7 6 6
39 40 39 38 36 34 33 32 31 30 29 27 26 24 23 21 20 20 19 18 16 15 15 14 14 15 15 14 14 14 16 17 18 18 19 18 17 17 16 15 14 13 12 11 11 10 10 10 10 10 10 10 10 10 9 9 9 8 9 9 10 10 9 9 9 9 8 7 7 6 6 6 6 6 6 7 7 8 8 8 8 7 7 7 7 6
34 34 35 34 32 31 31 31 30 29 27 26 25 24 22 21 19 19 19 18 16 14 13 12 12 13 13 12 12 11 11 11 11 12 12 13 13 13 13 13 13 12 12 11 10 9 9 8 8 8 8 8 8 8 8 7 7 7 7 7 7 7 7 8 8 7 7 7 7 6 6 6 6 6 6 6 7 7 7 7 7 7 7 7 7 6
29 29 30 31 31 30 30 30 28 28 27 26 26 24 23 21 19 19 19 18 16 14 14 11 10 12 12 11 11 11 10 9 9 9 9 10 10 10 10 10 10 9 9 9 8 7 7 7 7 7 7 7 7 7 7 6 6 6 5 5 5 6 6 6 6 6 6 6 5 5 5 5 5 5 5 5 6 6 6 6 6 6 6 6 6 6
26 27 28 29 29 28 29 30 30 30 30 29 29 26 24 23 22 20 18 17 16 15 14 12 10 12 12 11 11 11 10 9 9 8 8 8 8 8 8 7 8 7 7 7 6 5 6 6 6 6 6 6 6 6 6 6 6 5 5 5 5 4 5 5 5 5 4 4 4 4 4 4 4 4 4 4 4 4 4 4 5 5 5 5 5 5
23 25 26 28 29 28 30 33 34 33 32 32 31 28 25 24 22 19 16 15 14 14 14 13 12 13 13 11 10 10 9 9 8 8 8 7 7 7 7 6 6 6 6 5 5 5 5 5 5 5 4 4 4 4 4 4 4 4 4 4 4 4 4 3 4 4 3 4 4 3 3 3 3 3 3 3 3 3 3 3 3 3 3 4 4 4
23 23 25 27 27 29 33 36 35 34 31 29 27 24 21 20 19 18 18 17 15 16 17 15 13 13 13 11 10 10 10 10 10 10 9 9 9 8 8 7 6 5 5 5 5 5 5 4 4 4 4 4 3 3 3 3 3 3 3 3 3 3 3 3 3 3 3 3 3 3 3 3 3 3 3 3 3 3 3 2 2 3 3 3 3 3
24 24 25 26 25 25 28 29 28 28 26 26 26 24 23 24 24 24 24 22 19 18 19 18 14 13 13 12 11 11 11 11 12 12 11 10 9 8 7 6 5 4 4 4 4 4 3 3 3 3 3 3 3 3 3 3 3 3 3 3 3 3 3 3 3 3 3 3 3 3 3 3 3 3 2 3 2 2 2 2 2 2 2 2 2 3
25 26 27 32 32 28 26 27 27 26 25 26 29 31 31 31 30 29 27 24 21 19 19 18 13 12 13 13 11 11 10 10 10 10 9 8 6 5 4 3 3 3 3 3 3 3 3 3 3 3 2 2 2 2 2 2 2 2 2 2 2 3 2 2 2 2 2 2 2 2 2 3 2 2 2 2 2 2 2 2 2 2 2 2 2 2
26 27 29 37 41 35 32 35 34 32 30 30 32 34 33 32 30 30 29 27 24 20 18 16 14 13 13 12 10 9 8 7 6 6 5 4 3 3 3 3 3 3 3 3 3 3 3 2 2 2 2 2 2 2 2 2 2 2 2 2 2 2 2 2 2 2 2 2 2 2 2 2 2 2 2 2 2 2 2 2 2 2 2 2 2 2
27 29 31 37 42 37 33 36 37 35 35 34 35 34 33 32 32 33 32 28 24 20 17 15 14 13 12 9 7 6 6 5 5 4 3 3 2 2 3 3 3 3 3 2 2 2 2 2 3 2 2 2 2 2 2 2 2 3 2 3 3 3 2 2 2 2 2 2 2 2 2 2 2 2 2 2 2 2 2 2 2 2 2 2 2 2
29 31 31 34 39 37 33 35 38 37 36 36 36 35 34 34 34 33 33 29 24 21 17 15 13 11 9 7 6 5 5 5 4 3 3 2 2 2 2 2 2 2 2 2 2 2 2 2 2 2 2 2 2 2 2 2 3 3 3 2 2 2 2 2 2 2 2 2 2 2 2 2 2 2 2 2 2 2 2 2 2 2 2 2 2 2
32 33 32 31 35 36 33 35 38 37 35 36 37 36 34 34 34 37 37 31 24 18 14 11 9 8 7 7 6 6 5 4 4 3 2 2 2 2 2 2 2 2 2 2 2 2 2 2 2 2 2 2 2 3 2 3 3 2 3 3 2 3 2 2 2 2 2 3 2 2 3 2 2 2 2 2 2 2 2 2 2 2 1 2 2 2
35 34 33 30 31 34 33 34 37 36 35 36 36 35 34 32 33 36 34 25 16 11 9 9 8 7 7 7 6 5 5 4 3 2 2 2 2 2 2 2 2 2 2 2 2 2 2 2 2 2 2 2 3 3 3 3 3 3 3 3 3 3 3 3 3 3 3 3 3 3 3 2 2 2 2 2 2 2 2 2 2 2 2 2 2 2
36 35 34 30 29 32 32 32 34 34 33 34 33 32 29 26 26 26 25 19 12 9 8 8 8 7 6 6 5 4 4 4 3 2 2 2 2 2 2 2 2 2 2 2 2 2 2 2 3 3 3 3 3 3 3 3 4 4 4 3 3 3 3 3 3 3 3 3 3 3 3 3 3 3 2 2 2 2 2 2 2 2 2 2 2 2
37 35 33 29 28 29 30 31 32 32 33 32 30 27 23 20 19 20 21 17 11 10 10 9 8 7 5 5 4 3 4 3 3 2 2 2 2 2 2 2 2 2 2 2 2 2 3 3 3 3 2 3 3 3 4 4 4 4 4 3 3 3 3 3 3 3 3 3 3 3 3 3 3 3 3 2 2 2 2 2 2 2 2 2 2 2
36 34 33 30 28 28 30 31 32 31 31 29 28 26 22 20 18 17 21 19 11 10 11 9 8 7 5 4 4 3 4 3 2 2 2 2 2 2 2 2 2 2 2 2 2 3 3 2 3 3 2 3 3 3 3 4 3 4 3 3 3 3 3 3 3 3 3 3 3 3 3 3 3 3 3 2 2 2 2 2 2 2 2 2 2 2
36 33 33 31 30 30 31 33 32 30 31 30 29 28 24 22 21 18 23 24 16 10 9 7 6 6 4 4 4 4 4 3 3 2 2 2 2 2 2 2 2 2 2 2 3 3 3 3 3 3 3 3 4 3 3 4 3 4 3 3 3 3 3 3 3 3 3 3 3 3 3 3 3 3 3 2 2 2 2 2 2 2 2 2 2 2
39 35 34 32 32 31 30 33 35 35 37 35 32 31 27 24 21 16 18 21 15 9 8 6 6 5 4 4 4 3 3 3 3 2 2 2 2 1 2 2 2 3 2 2 3 3 3 3 3 3 4 4 4 4 4 4 4 4 3 3 3 3 3 3 3 3 3 3 3 3 2 3 2 2 2 2 2 2 2 2 2 2 2 2 1 2
44 39 37 34 33 32 30 33 37 37 38 35 32 32 28 24 22 17 16 17 13 10 8 6 5 4 3 4 3 3 3 3 3 3 2 2 2 2 2 2 2 3 2 2 3 3 3 3 3 3 4 4 4 4 4 4 4 3 3 3 3 3 2 3 2 2 3 2 2 2 2 2 2 2 2 2 2 2 2 2 2 2 2 2 2 2
47 41 40 36 34 34 31 35 38 36 36 35 32 31 28 26 25 21 17 16 13 10 7 5 4 4 2 3 3 2 3 3 3 3 2 3 3 2 3 3 3 3 3 3 4 4 4 4 4 4 4 4 4 4 3 4 3 3 3 2 2 2 2 2 2 2 2 2 2 2 2 2 2 2 2 2 2 2 2 2 2 2 2 2 1 2
46 40 40 37 35 34 34 40 45 41 38 39 36 32 29 28 26 20 16 15 11 7 5 3 3 3 2 3 3 2 2 3 3 4 3 3 3 3 3 3 3 3 3 3 4 4 4 5 5 5 5 5 5 4 4 4 4 3 3 3 3 2 2 3 2 2 2 2 2 2 2 2 2 2 2 2 2 2 2 2 2 2 2 2 1 2
46 42 42 38 36 36 37 43 49 45 41 41 39 34 30 29 25 18 13 10 6 4 4 3 3 3 3 3 3 3 2 2 3 3 3 3 3 3 3 3 3 3 3 4 4 4 4 5 5 5 5 5 5 4 4 5 4 4 3 3 3 3 2 3 2 2 2 2 2 2 2 2 2 2 2 2 2 2 2 2 2 2 1 2 2 2
48 44 43 39 38 40 40 43 50 49 42 40 39 36 31 27 22 15 10 8 6 5 4 4 3 3 3 3 3 3 3 3 3 3 3 3 3 3 3 3 3 4 3 4 4 4 5 5 5 5 5 5 5 4 4 5 4 4 4 3 3 3 2 2 2 2 2 2 2 2 2 2 2 2 2 2 2 2 2 2 2 2 2 2 2 2
47 42 43 42 40 42 42 42 48 49 43 39 39 35 30 26 20 15 12 11 9 6 5 4 4 3 3 3 3 3 3 3 4 3 3 3 3 3 3 3 3 4 3 4 5 5 5 6 5 5 5 5 4 4 4 4 4 4 4 3 3 3 2 2 2 2 2 2 2 2 2 2 2 2 2 2 2 2 2 2 2 2 2 2 2 2
49 45 47 46 39 38 43 45 48 50 47 43 38 32 31 32 26 20 16 13 11 8 5 4 4 3 3 3 3 3 3 3 4 4 3 3 3 3 3 3 3 4 4 4 5 5 6 6 6 6 6 5 5 4 4 5 4 4 4 3 3 3 2 2 2 2 2 2 2 2 2 2 2 2 2 2 2 2 2 2 2 2 2 2 2 2
57 51 49 47 42 42 47 49 53 57 53 45 39 34 34 37 33 23 18 14 10 7 5 3 3 3 3 3 3 3 3 3 3 3 3 3 3 3 3 3 3 3 3 4 4 5 5 5 6 6 6 6 6 5 4 5 4 4 4 3 3 3 2 2 2 2 2 2 2 2 2 2 2 2 2 2 2 2 2 2 2 2 2 2 2 2
63 55 52 51 49 50 53 54 56 60 54 45 41 37 34 36 33 24 18 14 9 6 5 3 3 3 2 2 3 3 3 2 3 3 3 3 3 3 3 3 3 3 3 4 4 4 5 5 5 6 6 6 6 5 5 5 4 4 4 3 3 3 2 2 2 2 2 2 2 2 2 2 2 2 2 2 2 2 2 2 2 2 2 2 2 2
70 64 58 54 49 47 53 55 54 54 50 44 40 37 33 35 33 24 16 12 9 6 4 3 3 3 3 2 2 3 3 2 3 3 3 3 3 3 3 3 3 3 3 3 4 4 5 5 5 6 7 7 6 5 5 5 4 4 4 4 3 3 3 2 2 2 2 2 2 2 2 2 2 2 2 2 2 2 2 2 2 2 2 2 2 2
78 70 59 51 46 44 48 51 50 51 50 44 39 35 32 31 29 22 14 10 8 5 4 4 3 3 3 2 3 3 3 2 3 3 2 3 3 2 3 3 3 3 3 3 4 4 5 5 6 6 7 7 7 6 5 5 4 4 4 4 3 3 3 3 2 2 2 2 2 2 2 2 2 2 3 2 2 2 2 2 2 2 2 2 2 2
79 70 58 50 47 45 45 46 46 47 48 43 36 31 27 25 23 19 13 10 8 6 4 4 4 3 3 3 3 3 3 3 3 3 3 2 2 3 3 3 3 3 3 3 4 4 5 5 6 6 7 7 7 6 5 5 4 4 4 4 3 3 3 3 2 2 2 2 2 2 2 2 2 3 3 3 2 2 2 2 2 2 2 2 2 2
76 71 61 52 45 41 40 41 38 36 37 37 34 29 25 23 21 17 13 10 7 6 4 4 4 4 3 3 3 3 4 3 3 3 3 2 2 3 3 3 3 3 3 3 4 4 4 5 6 6 6 6 6 6 5 5 4 4 4 4 4 3 3 3 2 2 2 2 2 2 2 2 3 3 3 3 3 3 2 2 2 2 2 3 3 3
76 73 64 53 44 39 38 39 37 34 34 36 37 33 28 26 24 20 15 11 8 5 4 3 3 4 3 3 3 3 3 3 3 3 3 2 2 2 2 3 3 3 3 3 4 4 4 5 5 5 5 5 5 5 5 5 4 4 4 4 4 4 3 3 3 2 2 2 2 2 2 2 3 3 3 3 3 3 2 2 3 2 3 3 3 3
80 79 74 64 52 42 39 40 42 42 40 41 42 39 32 29 28 23 17 13 9 7 5 3 3 3 3 3 3 3 3 3 3 3 3 2 2 2 2 2 3 3 3 3 4 4 4 4 5 5 5 5 5 5 5 5 4 4 4 4 4 4 4 3 3 2 2 3 2 2 3 3 3 3 3 3 3 3 3 3 3 3 3 3 3 3
Wind_Speed
40 42 44 46 48 50 52 54 56 58 60 61 63 65 66 68 72 73 74 75 77 79 81 82 83 84 84 86 88 89 91 92 92 93 94 94 94 95 95 96 97 98 98 98 99 100 100 101 102 103 104 104 105 106 106 107 107 107 107 107 107 107 107 107 108 108 108 109 109 109 109 109 110 110 110 110 110 110 109 109 109 108 108 108 107 106
44 46 49 50 52 55 57 58 60 62 64 66 68 70 71 72 75 78 78 78 79 81 83 84 85 85 86 87 89 91 93 93 94 94 94 95 95 96 97 97 98 98 98 99 99 100 101 102 103 104 105 107 108 109 109 110 110 110 110 110 110 110 110 111 110 110 110 111 111 111 111 111 111 110 110 110 110 110 109 109 108 108 107 107 106 105
48 51 53 55 57 59 61 63 65 67 68 70 72 74 75 76 77 80 82 82 82 82 84 86 87 88 88 89 91 92 94 95 95 95 95 95 96 97 98 99 99 99 100 100 101 101 102 103 103 105 106 108 109 110 110 111 111 111 112 112 112 112 111 111 111 111 111 111 111 111 110 110 110 109 109 109 108 108 108 107 106 106 105 105 104 103
53 55 57 60 62 64 66 68 70 71 72 74 75 76 78 79 79 80 82 84 84 85 85 87 89 91 91 90 92 94 95 96 97 97 97 97 98 99 100 101 101 102 102 103 103 103 103 103 103 104 105 106 107 108 108 109 109 109 110 110 110 110 110 110 110 110 109 109 109 109 109 108 108 107 107 107 106 106 105 105 104 104 104 103 102 101
57 59 62 64 66 68 70 72 73 75 76 77 78 79 79 81 81 81 82 84 85 86 87 88 89 92 95 94 94 96 97 99 99 99 99 99 100 101 102 102 102 102 102 102 102 102 101 101 100 101 101 103 104 104 104 105 106 106 107 107 108 108 108 109 109 108 108 108 108 108 107 107 106 106 106 106 105 105 104 104 104 103 102 101 100 99
62 63 65 67 69 70 71 73 74 75 77 78 80 81 82 83 83 84 84 84 86 88 89 90 90 93 97 98 96 97 99 100 101 101 100 100 100 100 100 100 100 100 100 99 99 99 99 98 98 98 99 100 101 102 102 103 103 104 105 106 106 107 107 107 108 107 107 107 107 107 106 106 105 105 105 105 104 104 104 103 102 102 101 100 99 98
64 66 67 69 70 71 73 74 75 76 77 79 80 82 83 84 85 85 86 87 88 90 92 94 94 94 97 99 97 96 97 97 98 98 97 97 96 96 97 97 98 98 98 98 98 98 98 99 99 99 99 100 100 101 102 102 103 103 104 105 105 105 106 106 106 106 106 105 105 105 104 104 104 103 103 103 102 102 102 101 101 101 100 99 98 97
66 67 69 70 71 72 74 75 76 78 78 80 82 83 85 86 87 87 88 89 90 92 92 93 94 93 95 97 95 93 93 93 93 93 93 93 93 94 95 96 97 97 97 96 97 97 98 99 99 99 99 99 100 101 102 102 103 103 104 104 104 104 104 104 104 104 103 103 103 103 102 102 102 101 101 101 100 100 99 99 99 99 99 98 97 97
67 68 70 72 73 74 75 76 78 80 81 83 84 85 86 86 87 87 86 86 87 89 90 90 92 92 93 96 95 92 91 90 90 90 90 90 92 92 93 94 95 95 95 95 95 96 97 97 97 97 97 98 98 99 100 100 101 102 102 102 102 102 102 102 102 103 103 102 102 101 101 100 100 100 99 99 99 99 98 97 98 98 98 97 97 97
68 70 72 73 75 77 78 79 81 81 82 83 83 83 83 83 82 82 82 83 84 87 89 89 91 92 93 95 95 93 91 89 87 87 88 88 89 90 90 92 92 92 92 92 93 93 94 95 94 94 95 95 96 97 98 98 99 99 100 100 100 101 101 101 101 101 101 102 101 101 100 99 99 98 98 98 98 98 97 96 96 97 96 96 96 96
69 71 73 75 77 79 79 80 80 80 80 80 80 79 80 80 80 81 81 82 83 86 87 88 89 91 93 94 95 93 90 86 83 83 84 85 86 87 88 89 89 89 89 89 89 90 91 91 91 92 92 93 94 96 96 97 97 98 98 98 99 99 99 98 99 99 99 99 99 98 98 97 96 96 96 95 95 96 95 94 93 93 93 93 93 94
72 73 74 75 76 76 77 77 78 78 79 79 79 79 79 78 78 78 79 79 80 81 83 85 85 87 90 93 95 92 86 84 82 80 80 81 82 84 86 87 86 86 86 86 86 87 88 88 88 89 89 91 92 93 94 94 95 95 95 95 95 95 95 95 95 95 95 95 95 95 94 93 93 92 93 92 92 92 92 91 90 89 89 89 89 89
73 72 72 72 72 73 73 74 76 78 79 79 79 78 77 75 73 71 71 71 71 73 78 81 81 83 86 92 96 89 79 78 81 80 80 79 80 82 85 86 85 85 84 84 84 85 86 86 86 86 87 88 89 90 91 92 92 92 92 92 92 92 92 92 92 91 91 91 91 91 90 90 89 89 90 90 89 89 89 88 87 86 86 85 85 85
69 69 69 70 70 70 70 70 71 73 74 75 75 74 74 73 70 67 67 67 65 66 75 81 81 82 85 90 96 92 82 79 82 84 85 83 83 84 86 88 88 87 87 86 86 87 87 87 86 86 86 87 88 90 91 92 92 92 92 92 91 91 92 91 90 90 89 89 89 89 88 87 87 87 87 87 87 87 87 86 85 85 85 84 84 83
67 66 67 67 68 68 69 70 71 74 75 77 78 78 79 80 79 77 76 75 72 69 75 81 82 84 85 87 92 94 92 90 88 90 92 91 89 89 90 91 91 91 90 90 90 90 90 90 89 88 88 89 90 91 93 94 94 95 94 93 93 93 93 92 91 90 89 89 89 88 87 87 87 87 86 86 86 86 86 86 86 86 86 85 84 83
68 69 68 69 70 71 72 75 77 79 80 81 83 83 83 84 86 85 85 86 84 80 79 81 82 82 83 84 88 92 95 95 93 95 97 97 96 96 96 97 97 96 96 95 95 95 95 95 94 93 93 93 93 94 95 96 96 97 96 96 95 95 95 94 93 91 90 90 89 89 88 87 87 87 86 85 85 85 87 87 88 87 87 86 84 84
66 69 70 70 71 72 72 73 75 77 79 80 81 81 81 82 84 86 86 86 88 86 82 82 82 81 81 81 83 88 91 91 92 95 97 98 99 100 101 102 102 101 101 100 100 99 99 99 99 99 98 98 98 97 97 98 98 98 97 97 97 97 97 97 96 94 93 92 91 90 89 89 88 87 86 85 86 87 89 89 89 89 88 87 85 84
58 61 64 64 64 65 66 67 70 73 75 77 78 79 80 81 82 84 85 86 88 87 84 83 82 81 81 82 83 85 87 88 90 93 95 98 100 101 102 103 103 104 103 103 103 102 102 101 101 100 100 100 100 99 99 98 98 98 98 98 98 98 98 99 99 98 96 94 92 91 90 90 89 88 87 86 87 89 89 89 90 89 88 87 86 84
50 52 58 60 61 62 63 64 67 69 72 74 77 78 80 81 82 83 85 88 90 90 88 87 84 82 83 85 86 86 87 88 90 92 94 96 98 100 101 102 103 103 104 104 103 102 101 101 101 100 100 99 99 99 100 99 98 98 98 98 98 98 97 97 98 99 98 97 95 92 91 90 90 89 89 88 89 89 89 89 90 90 89 88 87 85
49 50 55 60 62 62 63 64 65 68 70 73 75 77 79 81 82 81 83 87 91 92 93 93 89 86 87 90 90 89 90 91 91 92 93 95 97 98 100 100 101 102 103 102 101 100 98 97 97 97 97 97 96 97 98 98 97 96 95 95 95 95 95 95 96 97 96 96 95 94 92 90 89 89 89 89 89 89 88 89 90 90 89 88 87 86
51 52 55 59 61 62 64 65 67 69 71 73 74 76 78 80 81 80 80 83 88 91 94 97 94 90 91 94 94 94 95 95 96 96 96 96 97 98 99 100 100 101 101 100 99 97 95 94 94 95 95 96 95 95 96 96 95 94 94 93 93 92 91 91 92 93 93 92 91 91 91 90 89 88 88 88 88 88 88 88 89 89 88 87 86 86
53 54 56 58 60 61 63 67 69 71 73 75 76 77 78 80 82 82 81 81 84 87 92 97 95 92 93 96 96 97 98 99 100 100 99 99 100 100 100 100 101 101 100 99 97 96 95 95 94 93 93 92 92 91 90 91 91 91 91 91 91 89 88 88 88 88 88 88 88 87 87 87 86 85 85 85 86 86 86 85 86 86 86 85 85 85
54 54 56 59 61 62 65 68 70 72 74 77 78 79 80 81 82 84 86 85 84 84 89 94 94 93 94 97 98 99 101 102 103 103 103 103 103 103 103 102 101 100 99 98 97 96 95 94 92 90 89 88 87 86 85 85 85 85 86 87 87 87 86 86 86 86 86 85 86 86 87 86 85 84 83 83 84 84 84 83 82 82 83 82 82 82
56 56 56 58 58 58 63 67 69 70 72 75 76 77 77 79 81 82 85 87 86 85 88 93 94 94 96 99 101 102 104 106 106 107 107 107 107 106 106 106 104 100 98 96 95 93 91 89 88 87 87 86 86 86 86 85 84 83 82 83 84 84 84 84 85 85 85 84 84 85 86 86 86 85 84 84 84 83 83 82 80 79 79 78 79 79
60 61 62 64 62 57 57 61 61 63 66 70 74 76 76 77 79 81 84 87 88 88 90 95 96 95 97 101 102 104 106 106 106 106 105 105 104 103 102 101 98 95 92 89 87 85 83 82 81 81 81 81 81 82 82 82 82 81 79 78 79 80 80 80 81 82 82 81 81 81 81 83 83 83 83 83 84 84 83 82 81 79 78 76 75 75
64 65 68 74 76 71 68 71 71 69 69 72 76 79 80 81 82 83 85 88 90 91 91 95 99 98 99 102 102 103 104 103 101 99 98 97 95 93 91 89 87 87 86 84 82 80 78 77 76 76 75 75 75 75 75 74 74 73 72 72 72 73 73 74 74 75 75 75 75 75 75 77 78 79 79 80 81 82 82 82 81 80 78 76 73 71
64 66 70 78 84 83 81 83 84 82 80 79 80 81 82 83 84 86 89 91 93 94 93 96 100 101 102 103 103 102 101 98 94 92 89 87 86 85 84 83 82 81 81 79 77 76 74 72 72 71 70 70 70 69 69 69 68 67 67 67 68 68 68 68 68 68 68 68 68 69 70 71 72 74 75 76 77 78 79 80 79 78 77 76 73 70
66 67 69 75 84 85 83 85 87 86 85 85 84 84 84 85 85 87 89 92 94 97 97 98 100 102 103 103 101 99 98 94 92 90 88 84 82 81 79 77 76 74 72 71 70 69 68 66 66 66 66 66 65 65 65 64 64 64 63 64 64 65 65 64 63 63 63 64 65 66 67 67 68 69 70 72 73 74 75 76 76 76 75 74 73 71
69 70 68 71 80 84 82 84 88 87 86 87 87 88 88 87 87 88 90 93 96 99 100 100 100 101 103 103 99 97 96 95 93 91 88 84 80 77 74 72 70 68 66 65 64 63 62 61 61 61 61 61 60 60 60 59 59 59 59 60 60 60 60 59 58 59 60 61 62 63 64 65 65 65 66 67 68 69 70 71 71 72 71 70 69 70
73 74 72 70 76 81 81 83 88 88 87 89 89 90 90 89 90 91 92 94 96 98 100 101 101 100 101 101 98 95 93 92 90 87 84 80 76 72 69 67 66 65 64 62 61 61 60 59 58 58 57 57 56 55 54 54 55 55 56 57 57 57 57 56 56 57 57 58 59 60 61 62 62 63 63 64 64 65 65 66 65 65 65 64 63 64
78 78 76 73 74 79 81 83 87 88 87 89 90 91 91 89 89 90 91 93 96 98 98 99 100 99 99 98 95 92 91 89 87 85 81 76 72 68 66 65 63 62 61 60 59 59 58 58 57 56 55 53 52 52 51 50 51 52 53 54 54 53 54 54 55 55 56 56 57 58 59 59 60 60 61 61 60 61 62 63 62 61 61 60 59 58
83 82 82 77 76 79 81 82 84 86 86 87 89 89 89 88 87 88 90 94 97 99 99 99 101 100 98 95 92 90 89 88 87 84 78 73 70 68 66 64 63 61 59 58 58 58 58 57 56 55 53 52 50 49 48 47 48 49 50 51 50 50 51 52 52 53 53 54 55 56 57 58 59 60 59 58 56 55 56 58 60 60 59 58 57 56
87 86 86 82 79 81 82 83 84 86 86 86 88 89 89 88 88 88 92 95 98 100 102 102 101 99 95 91 88 86 85 85 85 81 75 71 69 68 66 64 63 61 60 59 59 59 58 56 55 53 51 49 48 46 46 46 47 49 50 50 49 50 50 51 51 51 52 52 53 54 55 56 59 60 60 58 55 52 52 54 57 58 58 57 56 55
89 89 89 88 85 84 86 86 86 85 86 87 89 91 92 93 93 92 93 97 98 98 98 98 95 92 89 87 86 85 83 83 82 78 73 70 69 66 65 64 62 60 59 59 58 58 57 55 54 52 50 49 47 46 46 47 47 49 50 50 49 50 50 51 51 51 51 52 53 53 53 55 57 59 59 58 55 52 51 51 53 56 56 55 53 52
92 92 91 91 90 89 89 91 91 89 90 91 92 95 96 96 96 93 92 96 99 98 97 96 94 91 88 87 85 83 79 78 78 75 70 68 67 64 62 61 59 58 57 57 56 56 54 53 52 51 50 49 49 48 47 48 49 49 50 50 49 50 50 50 50 50 51 52 52 52 52 53 55 56 57 57 54 52 50 49 50 52 53 52 50 49
95 95 95 94 94 92 91 93 96 97 98 97 97 99 99 98 98 97 95 97 102 103 102 101 96 91 88 85 82 78 74 73 74 72 68 66 64 62 60 58 56 56 55 54 54 53 52 51 50 49 48 48 49 48 48 47 48 48 49 49 48 48 48 47 47 47 47 48 49 49 50 50 51 53 53 54 52 50 48 47 47 48 48 48 47 46
99 99 99 98 98 97 95 95 98 98 98 98 99 101 102 102 104 104 102 102 103 104 103 99 93 87 82 81 78 73 68 68 70 70 68 67 65 63 62 61 59 58 57 56 55 54 53 52 50 49 48 49 49 48 47 46 46 46 46 47 46 45 44 43 43 42 42 43 43 45 46 47 47 48 48 49 48 46 44 44 44 45 44 43 43 42
102 102 102 101 101 101 99 99 100 99 98 99 101 103 104 105 107 106 104 102 101 100 98 93 87 82 78 76 75 71 63 61 64 66 66 66 66 64 64 64 63 61 60 57 55 54 54 53 52 51 51 51 51 49 48 46 45 45 46 46 45 44 43 42 41 40 39 38 39 39 41 42 43 43 42 42 42 41 41 40 40 41 41 39 39 38
102 102 102 102 102 102 102 104 106 105 102 102 104 105 106 107 108 106 103 100 96 93 91 88 84 81 78 76 75 72 64 58 58 60 61 62 63 61 59 59 59 58 57 55 53 52 52 51 51 52 52 53 52 51 49 48 48 47 47 47 46 45 44 43 42 39 38 37 36 35 35 36 37 37 35 36 36 35 36 36 36 36 36 34 33 32
101 101 102 102 102 103 103 105 106 106 104 104 105 107 107 107 107 106 102 99 96 93 92 92 88 84 81 78 76 73 69 63 58 58 58 58 59 59 57 55 53 52 51 50 49 50 51 50 50 51 52 53 53 52 51 51 50 49 49 48 47 45 44 42 40 39 37 36 34 33 32 31 31 31 30 30 30 30 30 31 31 31 30 28 27 26
101 101 102 102 103 105 104 104 105 106 104 103 104 106 108 107 106 105 104 105 105 102 99 98 94 89 84 82 80 75 73 71 68 64 61 59 59 59 58 56 54 52 48 46 45 45 47 49 50 50 51 52 52 52 51 51 51 50 49 48 46 44 43 41 39 37 36 35 33 31 30 28 28 27 26 26 26 25 25 25 26 26 24 23 22 22
101 101 103 104 104 105 104 104 105 106 104 104 104 105 108 112 112 112 112 113 113 111 105 101 97 92 86 84 83 79 75 75 75 72 68 66 63 61 60 58 56 54 51 48 46 45 45 47 49 50 51 52 52 51 51 51 51 50 49 48 46 43 41 39 37 35 34 33 32 30 29 27 26 25 24 23 22 22 21 21 21 21 20 19 19 19
104 104 105 106 105 105 106 108 110 110 110 109 109 108 112 119 122 121 119 116 115 113 108 101 96 93 88 84 82 79 75 73 74 72 70 68 66 63 61 59 56 53 51 48 46 46 45 46 47 49 50 51 52 51 50 51 51 50 49 48 46 43 40 37 35 34 33 32 31 29 28 26 26 24 23 22 21 20 19 18 17 17 16 16 15 16
106 106 107 107 107 109 112 113 115 117 115 113 114 114 116 121 123 121 118 115 113 112 109 101 95 91 87 83 80 77 73 71 71 70 68 67 65 63 61 59 56 53 50 47 45 44 44 44 45 47 49 50 50 50 50 49 49 49 48 47 45 44 41 37 35 33 33 32 31 29 27 26 25 24 23 22 20 19 18 16 15 14 13 13 13 13
106 107 108 108 107 109 112 114 116 118 115 112 112 112 112 115 118 118 115 112 109 108 107 102 94 89 85 81 78 76 72 69 68 68 66 64 63 62 60 59 56 52 49 46 45 44 44 44 44 45 47 49 50 50 50 49 48 48 47 47 45 43 41 38 35 33 32 32 31 29 26 25 25 24 23 22 20 18 16 14 13 12 11 11 10 10
107 108 108 108 106 104 105 107 109 112 112 109 108 108 109 111 114 114 111 106 102 101 101 100 94 87 82 79 77 75 73 69 68 67 66 64 62 61 60 59 57 53 50 47 44 44 44 44 44 44 45 47 49 50 49 49 48 47 46 46 44 42 41 39 36 33 32 31 30 28 25 24 24 24 23 22 20 18 16 13 12 10 9 9 9 8
106 106 106 106 105 103 102 102 103 108 111 110 109 108 107 106 108 107 104 100 96 94 94 95 94 88 82 77 75 74 73 70 68 67 66 64 63 62 60 59 57 54 51 48 45 43 43 43 43 43 43 44 46 48 48 47 47 46 45 44 44 42 40 38 35 33 31 30 29 27 25 23 23 23 23 23 21 19 16 13 11 9 8 7 7 6
104 105 104 104 105 105 104 102 100 101 104 106 104 103 101 101 102 102 100 97 94 92 89 90 92 91 85 78 74 73 73 72 70 69 67 65 64 63 62 60 58 54 52 50 47 44 43 42 43 42 41 41 42 45 46 46 45 44 43 43 43 41 39 38 35 32 30 30 29 27 24 23 22 22 22 23 22 20 17 14 11 9 7 6 5 5
104 105 104 103 103 102 102 101 97 93 94 99 101 100 101 102 104 104 102 98 95 92 88 86 86 88 87 82 75 72 72 71 70 69 68 65 63 63 61 60 58 55 51 49 48 45 43 42 42 42 41 40 40 42 43 44 44 43 42 42 42 40 38 37 34 32 30 29 28 26 24 22 22 22 22 22 22 20 18 14 11 8 6 4 4 4
106 106 105 104 103 102 103 105 105 102 102 106 109 109 108 109 111 111 109 104 100 97 93 88 84 83 84 82 77 71 69 69 68 67 67 65 62 60 59 58 56 54 51 49 48 47 45 43 42 41 41 40 40 41 42 42 42 42 41 40 40 39 37 36 34 31 29 29 28 26 24 22 22 22 22 22 21 20 17 14 11 8 5 3 2 3
108 110 110 109 108 106 107 110 114 114 114 115 117 118 116 116 117 117 116 112 108 104 99 93 87 82 79 78 75 71 68 68 67 66 65 64 62 60 59 57 55 52 50 49 48 47 46 45 44 42 41 40 40 40 41 41 41 41 40 39 39 39 37 35 33 31 29 28 28 26 24 22 22 22 22 21 20 19 17 13 10 7 4 2 1 1
Wind_Direction
287 288 288 288 289 289 289 289 289 289 289 289 288 288 288 288 288 288 288 288 288 289 289 289 289 289 290 290 290 289 289 288 288 287 287 287 287 287 287 287 287 287 287 288 288 288 288 288 288 288 288 287 287 286 286 285 285 285 284 284 283 283 282 282 281 281 281 281 280 280 280 280 280 280 280 280 280 280 279 279 279 279 279 278 278 278
290 289 290 290 290 290 290 289 289 289 289 288 289 289 289 289 289 289 289 288 289 289 290 290 290 290 290 289 289 288 287 287 286 286 286 286 287 287 287 287 287 287 287 287 287 287 287 287 288 288 288 288 287 287 286 286 286 285 285 284 283 283 282 282 281 281 280 280 280 280 279 279 279 279 279 279 279 279 279 279 279 279 278 278 278 278
291 291 291 291 290 290 290 290 290 290 290 290 290 290 290 290 290 291 291 291 291 292 292 292 291 290 289 288 287 287 287 286 287 287 287 287 287 287 287 287 287 287 287 287 287 287 286 286 286 286 286 286 285 285 285 285 284 284 284 283 283 282 282 281 281 280 280 280 279 279 279 279 279 279 279 279 279 279 279 279 279 279 279 279 279 279
291 291 291 292 292 292 292 292 292 292 292 292 292 292 292 292 292 293 293 294 293 293 292 292 292 291 289 288 288 288 288 288 288 288 288 288 288 288 288 287 288 287 287 287 287 286 286 285 285 284 284 283 283 283 283 283 283 283 283 283 283 283 282 282 282 281 281 281 280 280 280 280 280 280 280 280 280 280 280 280 280 280 280 280 280 279
293 294 294 294 294 294 294 294 294 295 295 295 295 294 294 294 293 293 293 293 293 293 292 292 293 292 291 290 289 289 289 290 290 289 289 289 289 289 289 288 288 288 287 287 286 286 285 285 284 284 283 283 283 283 282 282 283 283 283 282 283 282 282 282 282 282 282 282 282 282 282 282 282 282 282 282 282 282 281 281 281 281 280 280 280 279
296 296 295 295 295 295 295 295 296 296 296 296 296 296 295 295 294 294 294 294 295 294 294 293 293 292 292 291 290 290 290 290 290 290 290 290 290 289 289 289 289 288 288 288 287 287 286 286 285 284 284 283 283 282 282 282 281 281 281 281 281 281 281 282 282 282 282 282 282 282 282 282 282 282 282 282 282 281 281 281 281 281 281 280 280 280
297 297 297 297 297 297 297 297 297 296 296 296 296 296 296 296 296 296 296 296 296 295 294 294 293 292 291 291 291 290 290 290 290 290 291 291 291 291 291 290 290 289 289 288 288 288 287 286 285 284 284 283 283 282 282 282 281 281 281 280 280 280 280 281 281 281 282 282 282 282 282 282 282 282 281 281 281 281 281 281 281 281 281 281 281 281
299 299 299 299 298 298 298 298 298 297 298 298 297 297 297 298 298 298 298 297 297 296 295 294 294 293 292 292 291 291 290 290 290 291 292 293 293 293 292 291 290 289 288 287 287 286 285 285 284 284 284 283 283 283 282 282 282 282 281 281 281 281 281 281 281 281 281 281 281 281 281 281 281 281 281 281 281 281 281 281 281 281 281 281 281 281
301 301 300 300 300 300 300 300 300 300 300 299 299 298 298 298 298 298 298 298 298 297 296 295 295 295 294 293 293 293 292 292 293 294 295 295 294 293 291 289 288 288 287 287 286 285 285 284 284 284 284 283 283 283 283 282 282 282 282 282 282 282 282 282 282 281 281 281 281 281 281 281 281 281 281 281 281 281 281 281 281 281 281 282 282 281
302 302 302 302 302 302 302 302 301 301 300 300 299 299 299 299 299 300 300 300 299 299 298 297 297 296 296 295 294 294 294 295 296 297 296 294 292 290 289 288 287 287 287 287 286 286 286 285 285 285 285 284 284 283 283 282 282 282 282 282 282 281 281 281 281 281 281 281 281 281 281 281 281 281 281 281 281 281 281 280 280 280 281 281 281 281
304 305 304 304 304 304 303 303 303 303 302 302 301 301 301 302 302 302 302 302 301 300 299 299 299 298 297 296 295 294 295 297 297 296 294 293 291 290 289 288 287 287 287 287 286 286 286 285 285 285 285 285 284 284 283 283 283 282 282 282 281 281 281 280 280 279 279 279 279 278 278 278 278 278 277 277 277 278 278 278 278 278 279 279 279 279
308 307 307 306 306 306 307 307 307 306 305 304 303 303 303 303 303 303 302 302 302 301 301 300 299 299 299 298 296 296 298 300 299 296 293 292 292 291 289 288 288 287 287 287 286 286 285 285 284 285 284 284 284 284 284 283 283 283 282 282 282 281 281 280 279 278 278 277 277 276 275 275 275 274 274 274 274 274 274 274 274 274 275 275 276 276
310 310 309 308 308 309 309 309 308 307 305 304 304 303 302 301 301 300 299 299 300 301 301 300 300 300 301 301 299 301 303 302 300 298 297 295 294 293 293 292 291 291 290 290 289 288 287 286 286 286 285 285 285 285 285 284 284 284 283 283 283 282 282 281 280 279 279 278 277 277 276 275 275 274 273 273 272 272 272 272 272 271 271 271 272 272
312 312 311 310 310 309 309 308 306 305 304 304 304 304 304 303 302 301 300 299 300 303 304 303 303 303 303 301 301 306 308 305 303 303 301 300 299 298 297 296 296 296 295 294 293 292 292 291 290 289 289 289 288 288 288 287 287 287 286 286 285 285 284 283 282 282 281 280 280 279 278 277 276 275 275 274 274 273 273 272 271 271 270 269 269 269
312 311 310 310 310 311 311 312 311 310 310 310 311 311 311 311 311 311 310 308 308 310 308 305 304 303 301 300 302 305 305 304 305 304 303 302 302 301 301 300 300 299 298 298 297 297 296 295 294 294 293 292 292 291 291 291 290 290 289 289 288 287 286 285 284 283 283 282 281 280 279 279 278 277 276 276 276 276 275 275 273 272 270 269 268 268
316 315 315 316 317 318 319 318 317 316 315 314 314 314 314 313 313 313 312 311 311 312 310 305 303 302 299 299 301 300 299 301 302 301 300 301 301 301 302 301 301 301 300 300 299 298 298 297 297 297 296 295 295 294 293 292 292 291 290 290 289 289 288 287 286 285 284 283 282 281 280 279 278 278 277 277 277 277 277 276 275 273 272 271 270 269
322 321 321 321 321 321 319 317 315 313 312 312 311 311 311 310 309 309 309 308 308 310 308 304 302 301 298 298 298 295 295 297 297 296 297 297 297 298 298 299 299 300 300 300 299 299 298 298 298 297 297 296 295 294 293 292 291 291 290 290 289 289 288 288 287 286 284 283 282 281 281 279 278 278 277 277 277 277 276 275 274 273 272 272 271 270
324 320 318 318 317 317 316 314 313 311 311 311 310 309 309 308 307 307 307 306 306 307 306 303 302 301 299 299 297 294 294 294 293 293 293 293 294 294 295 295 296 297 297 297 297 297 297 297 297 296 296 295 294 294 292 292 291 290 290 289 289 288 287 287 287 286 285 284 283 282 281 280 279 278 277 276 276 275 275 275 274 273 272 272 271 271
320 315 313 314 314 315 316 316 316 315 314 313 312 311 310 309 308 308 308 307 307 308 307 304 303 303 301 300 298 296 295 293 293 292 292 292 292 292 293 294 294 294 295 295 296 296 297 297 296 296 295 294 293 293 292 291 291 290 289 289 288 287 287 286 286 285 285 284 283 282 281 280 279 279 278 277 276 275 275 274 274 273 272 272 271 271
315 313 313 315 316 318 319 321 321 319 317 315 314 313 312 311 310 310 311 310 310 310 308 307 306 305 303 301 300 299 298 296 296 295 295 294 294 294 295 295 295 295 295 295 296 296 297 296 296 295 294 294 293 292 292 291 290 290 289 288 287 287 286 286 285 284 284 284 283 283 282 281 280 279 278 277 276 275 274 273 272 272 271 271 271 270
314 315 316 318 320 322 323 322 322 321 320 319 318 317 315 313 312 312 313 312 311 310 309 307 307 307 305 304 303 303 302 302 302 301 301 300 299 299 299 299 298 298 298 298 299 299 298 297 296 296 295 294 293 292 291 291 290 290 289 288 287 286 285 284 283 283 283 283 282 282 281 280 279 278 277 276 275 274 273 272 271 271 270 270 269 269
315 317 319 320 321 323 324 325 326 328 327 326 324 321 319 317 316 314 313 311 311 310 308 307 308 308 307 306 306 306 306 305 305 305 306 305 305 304 304 303 302 302 302 302 302 301 300 299 297 296 294 293 291 290 289 288 288 288 288 287 287 286 285 284 283 283 283 283 283 282 281 280 279 277 276 275 275 274 273 272 271 271 271 270 269 269
317 319 322 324 325 327 330 331 332 332 332 330 328 324 322 319 317 315 313 311 310 310 308 307 308 309 309 308 308 308 308 308 309 310 310 310 309 308 307 306 305 305 304 304 303 303 301 300 298 297 295 294 293 292 290 289 288 287 287 287 287 287 287 287 286 286 285 284 283 283 282 281 280 279 277 276 275 275 274 272 271 271 271 270 270 269
320 321 322 323 325 330 333 333 333 333 331 329 325 321 318 317 315 314 313 312 312 312 311 310 310 311 311 311 311 312 312 312 312 312 312 311 310 309 307 306 305 305 305 304 303 301 299 298 297 297 296 296 295 293 292 291 291 290 290 289 289 289 288 287 286 285 284 283 282 281 281 280 280 280 279 278 277 276 275 274 273 271 270 269 269 269
327 327 327 326 324 324 325 324 323 325 326 326 325 322 321 321 319 318 317 316 315 315 314 313 312 313 314 313 313 314 313 313 312 311 310 308 306 305 303 302 303 304 304 302 301 299 298 297 297 296 295 293 292 291 291 291 291 291 291 290 288 287 286 284 283 281 281 281 280 280 280 280 280 280 280 279 278 278 277 277 276 274 273 270 268 268
333 333 334 335 332 331 331 329 327 327 329 330 331 331 330 328 325 322 320 318 317 316 316 315 314 315 315 314 314 313 312 311 310 308 305 304 303 303 303 304 306 307 305 304 302 301 300 299 297 296 295 293 292 292 291 291 290 290 290 289 287 285 283 282 281 280 280 280 281 280 280 279 279 279 278 278 277 277 277 277 277 276 276 274 272 269
337 338 339 340 339 338 340 339 337 336 336 336 335 334 333 330 328 326 323 321 319 317 317 317 316 317 316 315 314 313 312 311 309 307 306 306 306 307 309 310 310 307 305 303 303 302 301 299 298 297 296 296 295 294 294 294 293 293 292 290 288 286 284 283 282 283 283 282 281 280 278 277 277 276 276 276 275 275 275 276 276 276 276 276 276 273
339 341 342 343 340 339 341 340 338 338 338 337 337 335 334 333 330 328 325 322 320 318 318 318 317 317 316 315 315 315 314 314 313 313 313 312 312 313 313 311 307 305 304 304 303 302 301 301 300 299 299 298 298 297 297 296 296 294 292 290 288 287 287 287 287 286 286 285 283 281 279 278 276 275 274 274 274 274 275 275 276 276 276 276 276 276
342 342 343 344 341 339 340 340 339 339 338 338 337 336 335 334 331 329 326 324 322 320 319 318 317 317 317 317 319 319 319 318 317 316 315 315 316 316 314 310 309 308 307 306 305 305 304 303 302 301 301 300 300 299 298 298 297 295 293 292 290 290 290 290 289 288 286 285 284 283 282 281 280 279 277 276 276 275 275 275 275 275 275 275 275 274
343 343 343 344 342 340 340 341 339 339 339 338 338 337 336 334 333 332 330 326 321 319 318 317 318 320 321 321 322 322 319 317 316 315 315 316 318 317 314 313 313 312 311 310 310 308 307 307 306 305 304 303 303 302 302 301 300 299 298 297 296 296 295 294 292 290 288 287 285 284 283 282 282 281 280 279 279 279 278 277 277 277 276 275 273 271
344 343 342 343 343 342 342 342 340 340 340 339 338 337 335 334 333 331 328 323 318 317 318 319 321 324 324 324 323 321 319 318 317 316 318 320 320 318 318 317 316 315 315 314 313 312 311 310 309 308 308 307 307 306 305 304 303 301 300 299 298 298 297 295 293 292 290 289 288 287 286 285 284 283 282 281 280 280 280 280 280 280 279 277 274 271
344 344 343 343 344 343 343 343 341 340 339 338 337 335 332 331 330 328 327 323 319 319 321 324 326 327 327 325 323 322 322 321 319 319 322 324 323 322 322 321 320 319 318 317 316 316 315 314 313 312 312 311 310 309 308 307 306 304 302 301 301 300 298 296 295 293 293 292 291 290 289 289 288 287 286 285 283 283 282 281 281 280 279 278 277 275
344 344 343 343 345 345 344 343 341 340 339 339 336 333 330 328 327 328 328 325 323 324 326 327 328 328 327 326 324 323 325 323 321 322 325 326 325 325 325 323 323 323 322 321 321 319 317 316 315 314 313 313 312 312 312 312 311 309 307 307 306 304 302 300 299 298 297 295 293 291 290 289 288 288 288 288 288 286 283 280 279 278 278 277 277 276
344 344 344 343 345 346 345 343 342 340 340 339 337 334 332 330 329 330 332 329 325 326 327 327 328 328 328 328 327 327 329 326 323 324 327 327 326 326 326 325 325 325 324 324 322 320 319 318 317 317 317 317 317 317 318 317 316 315 313 311 310 308 307 306 305 303 301 298 295 292 290 288 286 286 288 289 289 288 284 280 278 277 277 277 276 275
345 345 344 344 345 347 346 344 342 342 341 341 339 337 335 334 332 331 334 332 328 327 328 329 331 333 333 332 330 330 331 329 325 325 328 328 326 326 326 326 326 326 325 324 323 320 319 319 319 320 320 321 321 322 322 321 319 318 315 314 313 311 310 309 307 304 300 296 293 291 289 286 285 285 286 287 288 287 284 281 277 275 276 276 275 274
345 345 345 345 346 347 347 346 344 344 344 343 341 339 337 336 332 331 334 334 331 331 332 334 335 336 334 332 330 331 333 331 327 327 329 328 327 326 327 327 327 327 327 326 323 321 320 320 321 322 323 323 323 322 322 321 320 318 316 315 314 313 310 308 304 300 296 293 290 289 287 285 284 284 284 285 286 285 282 279 277 275 275 274 273 272
345 346 346 346 346 347 348 348 345 344 344 343 342 341 339 338 336 334 335 336 334 334 334 334 335 335 334 332 331 332 334 334 330 329 330 330 329 330 331 330 331 331 330 329 327 324 323 323 324 325 326 325 324 323 323 322 321 320 318 317 316 314 311 308 304 300 296 292 289 288 286 285 285 284 284 285 285 283 280 278 277 277 276 274 273 271
345 346 346 347 347 347 348 348 345 344 345 345 343 341 341 341 339 337 336 336 335 333 333 333 334 335 335 333 332 332 335 337 334 332 332 331 331 333 334 334 333 333 331 330 328 326 325 326 327 327 327 326 325 324 325 325 325 324 322 321 320 319 316 313 310 306 302 298 294 291 289 288 288 287 287 286 286 283 280 278 277 278 278 277 275 274
346 346 346 347 347 347 348 348 346 345 346 346 345 343 343 343 340 337 336 335 333 332 333 334 336 338 338 337 335 334 335 338 338 335 334 333 332 333 335 334 332 331 330 328 328 326 325 326 327 327 327 325 324 325 327 328 328 327 326 325 325 323 321 318 314 312 309 305 301 297 295 293 292 292 292 291 289 287 284 283 282 281 281 281 281 279
346 346 346 347 348 348 348 348 347 345 345 347 347 344 343 342 340 336 333 332 332 335 338 339 340 341 341 339 338 337 336 338 340 339 337 335 333 333 335 335 332 330 329 328 328 327 326 326 328 327 326 325 325 326 328 329 329 329 328 328 327 326 323 319 317 315 313 310 307 304 302 301 299 298 298 296 294 293 291 290 288 286 285 286 285 282
346 346 347 347 348 347 347 347 347 346 345 347 347 345 342 341 339 336 335 336 337 340 342 342 342 342 342 341 340 340 340 340 341 342 340 339 337 336 336 336 334 332 330 329 328 328 327 327 328 328 327 326 326 328 329 329 329 329 329 329 328 327 324 321 319 317 315 313 312 311 310 309 307 305 304 302 301 301 300 296 293 292 291 290 287 282
346 347 347 348 347 346 346 347 347 346 346 347 347 346 343 342 341 340 341 341 341 341 342 343 343 342 343 343 342 342 343 342 341 341 341 340 339 338 337 337 335 333 332 332 331 331 329 329 329 328 328 327 327 329 330 329 329 330 330 329 329 328 325 323 322 320 318 317 317 317 317 317 316 313 312 311 310 309 306 303 300 298 298 295 290 284
346 347 347 347 347 347 347 347 347 347 347 347 347 347 347 346 345 344 344 343 342 341 341 343 343 342 342 344 343 343 344 343 341 341 341 340 339 338 337 336 335 333 333 333 333 332 331 330 330 329 328 327 327 328 329 329 329 330 330 329 329 329 327 326 325 323 322 321 322 323 323 324 324 322 321 320 318 314 311 308 305 303 300 297 291 286
346 346 347 347 347 347 348 348 347 346 347 348 349 349 350 349 347 345 344 343 342 341 340 341 343 343 342 343 343 342 343 343 341 340 340 339 338 337 336 335 335 333 332 332 332 331 331 331 331 330 328 327 327 327 328 328 328 329 329 329 329 330 329 329 328 327 325 325 326 327 328 330 331 329 328 326 322 318 315 312 309 305 301 295 288 284
345 346 346 346 347 348 348 348 347 345 346 349 349 349 350 349 346 344 344 343 342 341 339 340 342 343 342 343 343 342 342 343 342 340 339 339 337 336 335 335 334 333 332 332 333 333 332 332 332 332 330 328 327 327 327 327 327 329 329 329 330 331 331 331 330 329 328 328 328 329 332 335 336 335 332 329 326 322 319 315 311 307 301 293 286 281
345 345 345 345 347 348 348 347 346 345 346 348 349 349 349 349 347 345 343 343 342 341 340 339 340 342 343 343 344 342 341 342 342 340 339 338 337 336 336 335 334 333 333 333 334 335 334 334 334 334 332 329 327 326 327 327 327 328 329 329 329 331 331 331 331 331 330 329 329 331 335 339 340 338 335 332 329 326 322 317 313 308 301 294 286 277
344 344 345 345 346 347 348 348 348 347 347 348 349 349 349 348 347 344 342 342 342 343 342 340 340 341 343 345 345 343 341 341 342 340 339 339 338 337 337 336 335 334 333 334 335 336 336 335 335 334 334 331 327 326 326 326 326 327 329 329 330 331 332 331 332 331 331 331 331 333 337 342 344 342 339 335 332 328 324 319 313 306 298 291 283 272
343 343 345 346 346 346 346 347 349 349 348 348 348 347 347 346 345 344 343 343 343 344 345 344 342 342 342 345 346 345 342 341 341 340 340 340 339 338 337 337 336 335 334 334 335 337 338 338 336 335 334 332 328 325 325 325 325 327 329 329 330 331 332 331 332 331 332 333 333 335 339 344 347 346 343 338 333 329 324 321 316 310 301 293 284 271
343 343 344 346 346 346 346 346 348 349 349 348 348 347 347 347 346 345 345 345 345 345 346 347 346 344 342 343 346 347 344 342 341 340 339 339 339 338 337 337 336 335 335 335 336 337 339 339 337 335 334 333 330 326 325 325 325 327 330 329 329 330 332 332 332 332 333 335 335 336 340 346 348 348 345 339 333 328 323 320 318 314 309 301 285 266
343 343 344 345 347 347 347 347 348 350 351 351 349 349 349 349 349 348 347 346 346 347 347 348 349 348 344 342 344 346 345 342 341 339 338 339 339 338 337 338 337 336 336 336 337 338 339 339 337 335 334 333 331 328 326 326 326 328 330 329 328 330 332 332 332 333 335 336 336 337 341 346 349 349 345 339 332 325 320 317 313 309 309 307 282 259
344 343 344 345 347 348 349 349 349 350 351 352 350 349 350 351 350 349 348 348 348 347 347 347 349 349 347 344 343 345 345 343 341 340 338 338 339 339 339 339 339 337 337 337 338 338 338 338 337 336 335 334 333 330 329 328 328 328 330 330 329 329 331 332 332 333 335 337 336 337 341 345 348 348 345 339 331 324 317 313 308 304 304 303 284 249